Temp
-10 -10 -10 -10 -10 -9 -9 -9 -9 -9 -9 -9 -9 -9 -9 -9 -9 -9 -9 -9 -9 -10 -10 -10 -11 -11 -11 -11 -11 -11 -11 -11 -11 -11 -11 -12 -12 -13 -13 -13 -14 -14 -15 -15
-11 -11 -11 -10 -10 -10 -10 -9 -10 -10 -9 -9 -9 -9 -9 -9 -9 -9 -9 -9 -9 -10 -11 -11 -11 -11 -11 -11 -11 -11 -11 -11 -11 -11 -12 -12 -13 -12 -13 -13 -14 -14 -15 -15
-12 -12 -11 -11 -11 -11 -10 -10 -10 -10 -10 -9 -9 -9 -9 -10 -9 -9 -9 -10 -10 -10 -11 -11 -11 -11 -11 -12 -11 -11 -11 -11 -11 -11 -12 -12 -12 -12 -13 -13 -14 -14 -15 -15
-12 -12 -12 -12 -11 -11 -11 -11 -10 -10 -10 -10 -10 -9 -9 -10 -10 -9 -9 -10 -10 -10 -10 -11 -11 -11 -11 -12 -12 -12 -11 -11 -11 -11 -12 -12 -12 -13 -12 -13 -14 -14 -15 -15
-12 -12 -12 -12 -12 -12 -11 -11 -11 -11 -10 -10 -10 -9 -9 -10 -10 -10 -10 -10 -10 -10 -11 -11 -11 -12 -12 -12 -12 -12 -12 -12 -12 -11 -12 -12 -12 -12 -13 -13 -14 -14 -15 -15
-13 -13 -13 -12 -12 -12 -12 -12 -12 -11 -11 -10 -11 -10 -9 -10 -10 -10 -10 -10 -10 -10 -11 -12 -12 -12 -12 -12 -12 -12 -12 -12 -12 -12 -12 -12 -12 -12 -13 -13 -14 -14 -15 -15
-13 -13 -13 -13 -12 -12 -12 -12 -12 -12 -11 -11 -11 -10 -10 -10 -10 -11 -11 -11 -11 -11 -11 -12 -12 -12 -12 -12 -12 -12 -12 -12 -12 -12 -12 -12 -12 -13 -13 -13 -14 -14 -14 -15
-14 -13 -13 -13 -13 -13 -13 -12 -12 -12 -12 -11 -11 -11 -11 -10 -10 -11 -11 -11 -11 -11 -12 -12 -13 -13 -13 -13 -13 -13 -13 -12 -12 -12 -12 -12 -12 -13 -13 -13 -14 -14 -14 -14
-14 -14 -13 -13 -13 -13 -13 -12 -13 -13 -12 -12 -11 -11 -11 -11 -12 -12 -12 -12 -12 -12 -12 -13 -13 -13 -13 -13 -13 -13 -13 -13 -13 -12 -13 -13 -13 -13 -13 -13 -13 -14 -14 -14
-15 -14 -14 -14 -14 -14 -14 -13 -13 -13 -13 -12 -12 -12 -11 -11 -13 -13 -13 -13 -12 -12 -12 -13 -13 -13 -13 -13 -13 -13 -13 -13 -13 -13 -13 -13 -13 -13 -13 -13 -13 -14 -14 -14
-15 -15 -14 -14 -14 -14 -14 -13 -14 -14 -13 -13 -13 -12 -12 -12 -13 -13 -13 -13 -13 -12 -13 -13 -13 -13 -14 -14 -14 -14 -14 -14 -14 -13 -13 -13 -13 -13 -13 -13 -13 -13 -13 -13
-16 -16 -15 -15 -15 -15 -15 -15 -15 -15 -14 -14 -14 -13 -13 -13 -14 -14 -13 -13 -13 -13 -13 -13 -13 -14 -14 -14 -14 -15 -15 -14 -14 -14 -14 -13 -13 -14 -13 -13 -13 -13 -13 -13
-17 -16 -16 -16 -16 -15 -15 -15 -16 -15 -15 -14 -15 -14 -14 -15 -15 -15 -14 -14 -14 -14 -14 -14 -14 -14 -14 -14 -15 -15 -15 -15 -14 -14 -14 -14 -14 -14 -14 -13 -13 -13 -14 -13
-17 -17 -17 -17 -16 -16 -17 -17 -17 -17 -16 -16 -15 -15 -15 -15 -15 -15 -15 -14 -14 -14 -14 -14 -14 -15 -15 -15 -15 -15 -15 -15 -15 -15 -15 -14 -14 -14 -14 -14 -13 -13 -14 -13
-18 -17 -17 -17 -17 -17 -17 -17 -16 -16 -16 -15 -15 -16 -16 -16 -15 -15 -15 -15 -15 -15 -14 -14 -14 -14 -15 -15 -15 -15 -16 -16 -16 -15 -15 -15 -14 -14 -14 -14 -14 -13 -14 -14
-18 -18 -18 -18 -17 -17 -17 -17 -16 -16 -16 -15 -15 -15 -17 -16 -16 -15 -15 -15 -15 -15 -15 -15 -15 -15 -15 -15 -16 -16 -16 -16 -16 -16 -16 -15 -15 -15 -14 -14 -14 -14 -14 -14
-18 -18 -18 -18 -18 -18 -17 -16 -16 -17 -17 -16 -15 -16 -17 -17 -16 -15 -15 -15 -15 -15 -15 -15 -15 -15 -15 -16 -16 -16 -16 -16 -16 -16 -16 -16 -15 -15 -15 -14 -14 -14 -14 -14
-19 -18 -19 -18 -18 -18 -17 -16 -16 -17 -17 -17 -16 -16 -17 -17 -17 -17 -16 -16 -16 -16 -16 -16 -16 -16 -15 -15 -16 -16 -16 -16 -16 -16 -16 -16 -16 -15 -15 -15 -15 -14 -14 -14
-19 -19 -19 -19 -18 -18 -17 -17 -17 -17 -17 -17 -17 -17 -18 -18 -18 -18 -18 -17 -17 -16 -16 -16 -16 -16 -16 -16 -16 -16 -16 -16 -16 -16 -16 -16 -16 -16 -16 -16 -15 -15 -15 -14
-19 -18 -18 -18 -18 -18 -17 -18 -19 -19 -18 -18 -19 -18 -19 -19 -19 -19 -19 -19 -18 -18 -18 -17 -17 -17 -17 -16 -16 -16 -16 -16 -16 -15 -16 -17 -17 -16 -16 -16 -16 -15 -15 -15
-19 -19 -19 -20 -20 -18 -18 -19 -20 -20 -20 -20 -20 -20 -20 -20 -20 -20 -20 -20 -19 -19 -19 -19 -18 -18 -18 -17 -17 -17 -17 -17 -16 -16 -16 -17 -17 -17 -16 -16 -17 -16 -15 -15
-20 -20 -19 -20 -20 -18 -19 -20 -20 -21 -21 -21 -21 -21 -22 -21 -21 -21 -21 -20 -20 -20 -20 -20 -19 -19 -18 -18 -18 -18 -18 -18 -17 -17 -17 -17 -17 -17 -17 -17 -17 -17 -16 -15
-20 -20 -20 -20 -19 -20 -21 -21 -22 -22 -22 -22 -22 -22 -22 -22 -21 -21 -21 -21 -21 -21 -20 -20 -20 -19 -19 -19 -19 -18 -18 -18 -18 -17 -17 -17 -17 -17 -17 -17 -17 -17 -17 -16
-21 -21 -20 -21 -20 -20 -21 -22 -22 -22 -22 -22 -22 -22 -21 -21 -21 -21 -21 -21 -21 -21 -21 -21 -20 -20 -20 -20 -19 -19 -20 -20 -19 -19 -18 -18 -18 -18 -17 -17 -17 -17 -17 -17
-21 -21 -21 -21 -21 -21 -21 -22 -22 -22 -22 -22 -21 -21 -21 -21 -21 -20 -20 -20 -20 -20 -20 -20 -20 -20 -20 -20 -20 -20 -20 -20 -20 -20 -20 -19 -18 -18 -17 -17 -17 -17 -17 -17
-21 -21 -21 -21 -22 -22 -22 -22 -22 -22 -21 -21 -21 -21 -21 -20 -20 -20 -20 -20 -20 -20 -20 -20 -20 -20 -20 -20 -20 -20 -20 -20 -20 -20 -19 -19 -19 -19 -18 -18 -17 -17 -17 -17
Height
5748 5752 5759 5761 5763 5765 5771 5775 5776 5777 5782 5782 5782 5786 5784 5785 5784 5782 5781 5780 5778 5776 5774 5771 5770 5767 5765 5762 5759 5758 5756 5753 5750 5749 5746 5742 5737 5732 5726 5717 5708 5699 5690 5678
5739 5745 5749 5752 5756 5759 5764 5766 5770 5770 5774 5775 5776 5781 5780 5780 5779 5778 5776 5775 5773 5771 5770 5769 5767 5764 5762 5759 5756 5756 5753 5750 5748 5746 5744 5739 5735 5730 5724 5715 5706 5698 5688 5677
5732 5737 5740 5745 5748 5752 5755 5758 5761 5763 5766 5767 5769 5773 5776 5776 5774 5773 5773 5771 5769 5767 5766 5765 5763 5761 5758 5755 5754 5754 5750 5747 5746 5744 5741 5737 5733 5729 5723 5714 5705 5699 5689 5678
5721 5728 5733 5738 5742 5744 5747 5751 5753 5756 5757 5759 5762 5765 5769 5769 5768 5768 5767 5766 5765 5763 5762 5760 5759 5758 5755 5753 5752 5751 5748 5745 5743 5741 5739 5734 5731 5727 5722 5714 5705 5699 5690 5680
5716 5721 5725 5728 5733 5735 5740 5743 5745 5748 5749 5751 5754 5757 5760 5761 5761 5762 5762 5761 5760 5759 5757 5756 5755 5754 5752 5751 5749 5748 5745 5742 5740 5738 5736 5733 5729 5725 5720 5713 5706 5700 5691 5682
5704 5710 5715 5720 5724 5727 5731 5734 5737 5738 5741 5743 5748 5749 5750 5752 5756 5755 5755 5755 5754 5753 5752 5751 5751 5750 5748 5747 5746 5744 5743 5740 5738 5736 5733 5730 5726 5724 5720 5713 5707 5700 5693 5684
5696 5700 5706 5711 5715 5718 5722 5726 5728 5730 5731 5736 5739 5740 5743 5744 5745 5748 5749 5748 5747 5746 5746 5746 5746 5746 5744 5744 5742 5741 5739 5737 5735 5733 5730 5727 5724 5722 5718 5713 5707 5701 5694 5686
5683 5690 5695 5701 5706 5711 5712 5715 5719 5720 5724 5728 5729 5730 5732 5735 5736 5738 5740 5742 5740 5741 5741 5740 5741 5741 5740 5740 5739 5737 5736 5734 5732 5730 5728 5725 5722 5719 5716 5713 5708 5702 5696 5689
5674 5676 5684 5689 5694 5700 5702 5705 5710 5712 5713 5716 5720 5722 5723 5726 5727 5729 5731 5733 5734 5734 5735 5734 5735 5736 5736 5735 5735 5735 5733 5731 5729 5727 5725 5722 5720 5717 5714 5711 5708 5703 5696 5691
5659 5665 5672 5678 5682 5686 5690 5696 5698 5700 5703 5706 5709 5711 5712 5718 5719 5721 5723 5726 5727 5727 5728 5728 5729 5731 5731 5731 5731 5731 5729 5727 5725 5724 5722 5719 5717 5715 5712 5709 5706 5704 5697 5692
5647 5655 5661 5665 5670 5678 5682 5683 5686 5692 5694 5696 5700 5702 5705 5706 5710 5714 5717 5718 5719 5721 5721 5722 5723 5724 5725 5725 5726 5726 5724 5723 5721 5720 5719 5717 5715 5713 5711 5709 5705 5701 5696 5692
5638 5643 5647 5656 5659 5664 5668 5672 5676 5679 5685 5689 5691 5693 5694 5695 5701 5704 5708 5709 5710 5713 5714 5715 5716 5717 5718 5720 5720 5720 5720 5718 5717 5715 5715 5714 5712 5710 5709 5707 5705 5702 5696 5692
5626 5630 5636 5643 5649 5653 5659 5665 5668 5670 5674 5678 5682 5685 5688 5689 5691 5695 5699 5700 5701 5703 5705 5706 5707 5709 5711 5713 5714 5714 5714 5713 5712 5710 5710 5710 5709 5707 5706 5705 5703 5701 5697 5692
5617 5623 5629 5636 5643 5648 5652 5658 5661 5663 5664 5671 5674 5678 5680 5683 5683 5686 5689 5691 5694 5696 5697 5698 5699 5701 5704 5706 5707 5708 5708 5708 5707 5706 5705 5705 5705 5703 5702 5702 5702 5700 5698 5694
5608 5615 5621 5626 5632 5637 5643 5648 5652 5655 5661 5662 5669 5670 5671 5673 5675 5677 5680 5683 5686 5688 5689 5690 5692 5694 5695 5697 5700 5701 5701 5701 5701 5701 5700 5700 5700 5700 5699 5699 5700 5699 5697 5694
5598 5605 5610 5615 5622 5627 5634 5638 5643 5647 5651 5654 5659 5663 5662 5664 5666 5667 5670 5673 5677 5679 5681 5682 5684 5686 5687 5688 5690 5693 5694 5694 5694 5694 5695 5695 5695 5695 5695 5695 5696 5697 5695 5694
5587 5594 5599 5605 5611 5616 5621 5630 5634 5638 5642 5644 5646 5654 5650 5652 5655 5659 5661 5664 5666 5668 5670 5673 5675 5677 5680 5680 5682 5683 5685 5686 5686 5687 5687 5689 5689 5690 5690 5690 5692 5692 5693 5692
5576 5584 5589 5596 5599 5602 5614 5619 5623 5624 5627 5631 5637 5638 5638 5641 5646 5648 5649 5651 5654 5656 5659 5661 5663 5667 5670 5671 5673 5674 5676 5677 5678 5678 5679 5681 5683 5684 5685 5684 5686 5688 5688 5688
5567 5573 5577 5583 5589 5596 5603 5607 5610 5611 5615 5619 5622 5623 5624 5628 5632 5635 5636 5639 5641 5644 5647 5649 5652 5654 5657 5660 5662 5664 5666 5668 5669 5669 5669 5672 5675 5677 5678 5679 5680 5682 5683 5683
5557 5564 5569 5574 5576 5583 5596 5594 5594 5594 5600 5605 5606 5609 5613 5614 5618 5623 5625 5628 5630 5632 5634 5637 5639 5642 5644 5647 5650 5653 5655 5657 5659 5659 5660 5663 5666 5668 5670 5672 5674 5674 5678 5678
5546 5552 5557 5561 5563 5571 5580 5579 5582 5586 5597 5593 5595 5597 5599 5603 5608 5609 5612 5615 5618 5621 5623 5626 5628 5631 5633 5635 5637 5639 5642 5645 5646 5648 5651 5654 5656 5658 5661 5663 5666 5667 5670 5672
5538 5543 5548 5552 5557 5562 5567 5571 5577 5580 5580 5583 5584 5587 5590 5593 5596 5599 5602 5606 5609 5612 5614 5616 5618 5619 5621 5624 5625 5626 5628 5632 5634 5636 5638 5641 5645 5647 5650 5654 5658 5660 5662 5665
5528 5534 5540 5547 5550 5554 5560 5564 5566 5569 5571 5574 5577 5581 5583 5585 5588 5591 5594 5598 5601 5603 5604 5606 5607 5609 5611 5613 5615 5616 5618 5620 5622 5623 5627 5629 5632 5636 5640 5643 5647 5651 5653 5657
5519 5526 5531 5537 5540 5544 5549 5555 5557 5560 5563 5566 5570 5573 5575 5578 5580 5582 5586 5589 5591 5593 5594 5596 5599 5601 5602 5604 5605 5607 5609 5611 5613 5614 5616 5617 5621 5624 5628 5632 5634 5640 5643 5647
5513 5518 5523 5527 5531 5535 5541 5546 5548 5552 5555 5559 5562 5564 5566 5568 5571 5574 5576 5579 5581 5583 5585 5587 5589 5590 5592 5594 5595 5597 5600 5601 5604 5607 5609 5609 5611 5613 5616 5620 5623 5627 5633 5637
5502 5509 5514 5520 5525 5528 5532 5535 5538 5543 5546 5550 5553 5555 5558 5561 5564 5566 5569 5571 5573 5575 5577 5578 5579 5580 5581 5581 5583 5586 5588 5591 5593 5596 5599 5602 5602 5602 5606 5609 5613 5616 5620 5626
Wind_Speed
47 47 42 42 43 45 40 37 36 36 31 31 30 25 28 29 30 31 32 33 33 28 28 28 25 23 20 20 20 20 20 20 19 20 19 19 20 29 35 37 40 42 41 43
46 44 43 45 43 45 41 40 38 40 37 35 34 29 29 30 31 32 32 33 33 29 27 26 25 22 20 19 19 19 19 19 20 18 17 17 17 27 35 37 39 38 38 39
44 43 44 43 43 42 42 42 41 42 40 41 39 36 31 30 33 33 33 32 33 31 28 26 25 22 21 19 19 18 17 18 19 18 16 16 16 24 28 34 39 38 37 40
48 46 42 43 43 42 43 41 42 42 43 44 41 41 33 34 35 34 33 34 34 30 29 27 24 22 21 20 19 18 18 18 19 18 16 16 17 22 28 32 37 39 39 39
47 45 44 44 44 43 42 40 41 43 44 45 42 43 40 35 37 35 34 34 35 33 31 27 25 22 20 20 19 18 18 18 19 18 17 16 18 21 24 29 35 38 37 36
50 48 46 45 43 44 43 42 42 43 44 48 42 41 43 41 38 37 36 33 34 34 30 28 25 22 21 21 19 18 19 19 19 19 18 17 17 20 21 24 30 35 37 36
50 50 48 47 46 46 45 43 44 45 46 46 45 45 43 42 41 37 36 35 36 32 29 27 25 23 21 21 19 18 18 17 18 19 18 17 18 19 21 23 25 32 37 38
54 53 51 49 47 46 46 47 46 47 46 47 47 47 46 46 44 38 33 34 32 27 29 28 26 23 22 21 19 18 18 17 17 18 18 18 18 20 21 23 24 29 35 37
52 53 52 51 50 49 49 50 48 48 49 50 49 49 48 45 42 37 35 30 27 27 28 29 26 24 24 21 18 18 18 17 17 17 18 19 18 20 22 22 24 25 30 35
59 54 52 49 49 50 49 49 49 49 49 49 50 49 49 42 38 36 31 28 27 27 29 29 28 25 24 22 20 18 17 17 17 17 18 19 20 19 21 22 23 25 26 29
53 54 58 59 59 55 52 53 50 47 47 46 47 48 48 46 41 33 29 27 28 28 30 30 29 26 25 23 20 18 18 18 17 17 19 19 19 20 20 22 20 18 20 25
40 43 45 41 43 48 50 51 49 49 49 48 48 49 49 48 42 37 28 26 29 29 27 29 31 32 30 23 22 20 22 22 20 18 18 19 18 19 18 20 21 17 16 19
43 44 41 42 41 41 41 39 36 38 39 40 39 42 36 37 35 30 26 24 23 28 30 31 32 33 32 27 23 23 23 22 20 18 18 18 17 18 18 16 19 15 13 15
45 43 42 38 35 34 33 29 30 34 38 35 35 33 32 31 35 34 31 30 27 24 25 30 32 33 33 28 25 25 27 22 20 20 19 20 18 17 17 16 15 18 10 11
40 41 41 39 41 40 39 37 37 37 34 38 36 35 33 34 36 38 36 33 32 31 29 28 27 31 33 33 30 29 29 28 24 23 22 22 21 19 16 16 13 15 11 7
46 45 45 46 46 45 41 37 35 36 37 38 38 38 36 39 40 41 39 33 29 30 31 33 32 33 36 36 33 31 33 32 30 29 26 26 22 21 18 17 14 13 13 10
54 48 53 53 50 48 47 42 41 42 43 44 46 41 42 43 45 45 43 41 39 36 34 35 34 33 34 36 34 34 33 32 33 33 31 31 27 23 20 18 16 13 13 13
57 55 55 54 54 53 49 47 49 52 52 50 49 50 52 50 47 46 47 47 45 43 40 38 38 38 38 38 36 35 35 36 38 39 36 33 33 27 23 20 19 16 14 13
48 52 54 50 53 54 53 54 56 58 57 55 53 52 53 51 48 49 47 46 47 46 44 42 41 42 42 42 43 42 40 40 42 44 44 38 33 31 27 25 23 20 17 14
52 50 51 53 55 58 57 53 52 53 52 49 49 50 50 49 48 45 44 45 45 46 45 43 43 43 44 45 46 45 44 47 47 47 46 43 38 36 31 28 26 24 21 17
58 55 52 50 49 53 54 48 44 43 37 37 39 39 40 39 39 40 39 37 38 38 39 39 39 41 42 44 47 49 50 50 52 52 49 46 45 43 34 28 29 28 25 22
55 49 50 47 46 44 41 38 34 27 27 28 28 27 28 30 31 33 34 34 33 32 33 34 36 37 38 40 45 47 49 51 49 51 55 49 47 47 40 35 29 30 30 26
47 43 41 38 37 36 32 31 31 29 28 26 28 28 29 32 34 34 34 34 33 34 37 37 39 37 36 36 39 42 41 43 37 47 45 41 45 46 47 41 37 32 33 32
43 39 38 37 36 34 31 29 32 32 31 31 30 30 32 34 37 37 37 38 39 40 40 41 39 37 35 36 40 39 30 25 26 21 27 39 42 37 37 37 39 34 37 36
42 38 39 37 33 33 30 29 32 33 32 31 31 31 30 30 31 32 32 31 31 30 30 33 37 41 44 45 45 40 37 34 30 30 27 23 29 31 34 37 34 40 36 40
46 43 41 38 35 36 35 37 36 34 33 32 31 32 31 30 31 31 30 29 28 27 27 28 31 33 36 37 39 40 40 40 41 37 33 33 31 23 32 33 32 32 39 40
Wind_Direction
241 242 243 242 242 244 244 245 248 252 256 262 269 275 283 291 300 307 316 322 326 321 317 316 317 321 321 320 321 321 325 324 324 327 332 338 352 353 354 353 356 357 357 355
239 241 241 242 242 245 244 245 249 251 256 263 268 275 280 287 293 302 313 317 321 318 313 312 315 319 321 321 322 323 322 324 323 323 331 338 353 356 358 357 359 356 357 356
240 239 241 243 244 245 246 246 247 252 256 261 267 271 277 284 289 297 307 311 314 314 310 310 312 315 318 320 320 323 325 326 324 321 330 334 348 353 355 2 4 355 2 4
239 240 241 245 246 247 248 249 250 252 256 260 265 268 275 283 287 298 305 306 308 308 306 304 306 311 313 313 318 324 330 328 325 318 324 329 338 342 354 6 5 360 1 4
242 242 242 243 244 246 248 249 252 254 257 260 265 270 274 280 288 295 300 300 302 304 300 297 301 306 309 306 311 317 327 332 324 313 319 326 330 336 357 360 4 3 3 7
241 241 241 242 244 247 248 250 252 255 258 260 266 270 273 280 286 291 295 293 297 298 293 291 295 299 303 302 306 311 316 326 322 312 313 322 325 330 348 352 356 2 2 11
243 244 245 244 245 247 249 253 256 258 260 263 267 269 274 280 286 288 288 287 294 289 284 284 287 292 295 298 303 307 314 321 321 312 307 316 326 323 333 344 355 358 357 9
239 242 244 245 247 248 249 251 255 260 263 265 267 272 276 279 283 287 284 289 286 280 277 280 283 285 288 293 300 307 311 316 318 314 303 309 318 321 323 333 343 353 354 357
240 241 242 244 245 246 249 251 255 258 261 264 267 271 273 277 280 281 283 283 277 273 273 276 275 279 284 289 296 305 307 310 316 313 301 303 311 321 322 325 335 345 347 350
238 239 240 241 243 244 246 249 251 254 258 263 266 269 272 273 274 276 276 276 271 270 273 269 270 275 278 285 292 296 302 301 309 312 305 298 305 313 325 320 324 336 340 350
237 239 242 244 247 249 248 250 250 253 254 258 264 266 269 270 270 265 271 273 268 268 267 264 266 266 271 276 284 288 291 296 301 305 305 299 300 309 319 326 335 345 347 354
234 231 233 236 236 239 242 244 245 248 253 258 262 264 267 269 270 271 272 263 261 260 262 259 262 264 265 268 275 278 284 287 293 296 299 303 296 304 315 323 332 334 352 359
228 231 232 232 233 236 240 243 244 244 247 250 253 259 262 266 270 268 263 256 255 253 250 250 254 259 261 267 269 270 274 288 286 284 289 293 294 294 306 315 325 337 348 3
229 233 236 240 242 237 238 238 239 243 245 248 251 254 258 259 263 261 260 254 255 256 256 252 249 251 257 263 264 266 270 281 281 278 281 285 287 285 293 302 314 332 332 358
234 240 238 238 236 234 236 239 241 247 253 253 255 255 257 258 260 262 262 261 257 255 255 256 253 252 254 260 260 263 269 274 273 275 274 277 281 280 279 291 302 314 309 325
233 236 233 232 236 239 235 234 242 250 254 257 260 258 258 261 260 260 262 262 260 259 259 256 252 251 252 255 256 260 266 274 271 272 269 270 275 274 272 275 284 297 311 282
224 231 231 230 232 233 236 242 254 259 260 259 258 258 252 251 256 261 265 264 262 258 253 255 253 249 251 253 254 256 262 270 271 271 270 262 266 271 266 263 270 277 292 283
215 222 226 228 231 237 243 253 263 267 266 263 262 257 256 256 255 256 257 258 258 258 256 250 249 250 250 246 248 256 262 267 271 271 270 265 263 265 264 256 257 262 269 284
223 222 227 237 238 247 247 259 270 274 268 265 263 257 255 255 254 254 253 253 255 256 254 253 250 249 249 249 250 251 258 261 264 265 266 267 266 264 262 252 248 251 256 266
250 248 251 254 261 265 269 274 271 263 260 258 257 257 257 255 255 255 255 254 255 256 256 255 253 250 248 249 252 254 256 259 259 262 265 266 262 262 258 252 245 241 247 251
252 256 260 265 267 269 270 265 259 260 266 260 257 254 252 252 251 251 251 251 252 253 255 255 254 254 252 252 251 250 250 252 256 257 258 260 258 263 258 255 238 242 240 243
250 251 253 255 257 257 256 260 264 261 250 248 247 244 243 244 247 248 248 246 244 245 249 250 251 251 250 251 252 253 254 254 256 257 257 257 258 261 266 254 246 234 239 236
241 243 246 249 254 255 254 251 251 246 243 249 238 236 239 242 240 240 242 242 244 248 250 253 250 247 252 252 254 253 256 259 263 258 257 258 256 257 260 259 250 235 236 236
236 238 241 244 246 246 247 240 239 239 245 249 246 245 249 248 245 247 249 250 252 255 255 254 256 258 262 268 270 269 259 260 268 266 259 255 259 257 254 255 253 241 233 236
236 236 237 240 239 240 238 237 237 240 244 243 244 247 248 248 248 249 252 255 257 257 257 255 254 256 258 258 260 264 265 270 270 271 275 271 258 260 259 257 250 243 236 230
233 234 236 236 234 234 230 230 235 239 241 244 245 246 246 246 247 248 249 252 256 258 260 260 259 258 259 258 255 257 261 265 264 265 266 270 276 273 256 252 257 253 234 230